• în Republica Moldova
  • Lista ţărilor
  • Pe 7 zile
  • Temperatura apei
  • Hartă satelitară
  • Meteo pe hartă
  • Widget-uri
  • user-avatar
    Intrare

    Meteo pe oră la Maracay

    Astăzi, 25 Iunie, Marţi

    Timp Temperatura Precipitaţii Vânt Presiune Umiditate
    00:00 +24°C° 0 mm 1 m/s 712 mmHg 91%
    01:00 +23°C° 0 mm 1 m/s 711 mmHg 91%
    02:00 +23°C° 0 mm 1 m/s 711 mmHg 90%
    03:00 +23°C° 0 mm 1 m/s 711 mmHg 90%
    04:00 +23°C° 0 mm 1 m/s 711 mmHg 90%
    05:00 +23°C° 0 mm 1 m/s 712 mmHg 88%
    06:00 +24°C° 0 mm 1 m/s 712 mmHg 87%
    07:00 +25°C° 0 mm 1 m/s 713 mmHg 86%
    08:00 +26°C° 0 mm 1 m/s 713 mmHg 79%
    09:00 +28°C° 0 mm 1 m/s 713 mmHg 72%
    10:00 +29°C° 0 mm 1 m/s 713 mmHg 66%
    11:00 +30°C° 0.1 mm 2 m/s 713 mmHg 64%
    12:00 +30°C° 0.1 mm 2 m/s 712 mmHg 63%
    13:00 +31°C° 0.1 mm 2 m/s 712 mmHg 61%
    14:00 +30°C° 0.2 mm 2 m/s 712 mmHg 65%
    15:00 +30°C° 0.2 mm 2 m/s 711 mmHg 68%
    16:00 +29°C° 0.2 mm 1 m/s 711 mmHg 72%
    17:00 +28°C° 0.1 mm 1 m/s 711 mmHg 78%
    18:00 +26°C° 0.1 mm 1 m/s 711 mmHg 83%
    19:00 +25°C° 0.1 mm 1 m/s 712 mmHg 89%
    20:00 +24°C° 0 mm 1 m/s 712 mmHg 90%
    21:00 +24°C° 0 mm 1 m/s 712 mmHg 91%
    22:00 +24°C° 0 mm 1 m/s 712 mmHg 92%
    23:00 +23°C° 0 mm 1 m/s 712 mmHg 92%

    Mâine, 26 Iunie, Miercuri

    Timp Temperatura Precipitaţii Vânt Presiune Umiditate
    00:00 +23°C° 0 mm 1 m/s 712 mmHg 93%
    01:00 +23°C° 0 mm 1 m/s 712 mmHg 93%
    02:00 +23°C° 0 mm 1 m/s 712 mmHg 93%
    03:00 +23°C° 0 mm 1 m/s 712 mmHg 92%
    04:00 +22°C° 0 mm 1 m/s 712 mmHg 92%
    05:00 +23°C° 0 mm 1 m/s 712 mmHg 89%
    06:00 +22°C° 0 mm 0 m/s 712 mmHg 87%
    07:00 +23°C° 0 mm 0 m/s 713 mmHg 84%
    08:00 +26°C° 0 mm 1 m/s 713 mmHg 77%
    09:00 +28°C° 0 mm 1 m/s 713 mmHg 70%
    10:00 +29°C° 0 mm 2 m/s 714 mmHg 63%
    11:00 +30°C° 0.1 mm 2 m/s 713 mmHg 61%
    12:00 +30°C° 0.1 mm 3 m/s 713 mmHg 60%
    13:00 +31°C° 0.1 mm 3 m/s 712 mmHg 58%
    14:00 +30°C° 0.1 mm 2 m/s 712 mmHg 61%
    15:00 +30°C° 0.1 mm 2 m/s 711 mmHg 65%
    16:00 +29°C° 0.1 mm 1 m/s 711 mmHg 68%
    17:00 +27°C° 0 mm 2 m/s 711 mmHg 75%
    18:00 +26°C° 0 mm 2 m/s 711 mmHg 81%
    19:00 +24°C° 0 mm 2 m/s 711 mmHg 88%
    20:00 +24°C° 0 mm 2 m/s 711 mmHg 89%
    21:00 +23°C° 0 mm 1 m/s 711 mmHg 90%
    22:00 +23°C° 0 mm 1 m/s 712 mmHg 91%
    23:00 +23°C° 0 mm 1 m/s 712 mmHg 91%

    Poimâine, 27 Iunie, Joi

    Timp Temperatura Precipitaţii Vânt Presiune Umiditate
    00:00 +23°C° 0 mm 1 m/s 712 mmHg 91%
    01:00 +22°C° 0 mm 1 m/s 711 mmHg 91%
    02:00 +22°C° 0 mm 1 m/s 711 mmHg 91%
    03:00 +22°C° 0 mm 1 m/s 711 mmHg 91%
    04:00 +22°C° 0 mm 1 m/s 711 mmHg 90%
    05:00 +23°C° 0 mm 1 m/s 711 mmHg 87%
    06:00 +24°C° 0 mm 1 m/s 712 mmHg 83%
    07:00 +23°C° 0 mm 0 m/s 712 mmHg 79%
    08:00 +26°C° 0 mm 1 m/s 712 mmHg 73%
    09:00 +27°C° 0 mm 2 m/s 713 mmHg 67%
    10:00 +29°C° 0 mm 2 m/s 713 mmHg 61%
    11:00 +29°C° 0 mm 3 m/s 712 mmHg 60%
    12:00 +30°C° 0 mm 3 m/s 712 mmHg 58%
    13:00 +30°C° 0 mm 3 m/s 712 mmHg 57%
    14:00 +30°C° 0 mm 2 m/s 711 mmHg 59%
    15:00 +30°C° 0 mm 2 m/s 710 mmHg 62%
    16:00 +29°C° 0 mm 2 m/s 710 mmHg 64%
    17:00 +27°C° 0 mm 2 m/s 710 mmHg 72%
    18:00 +26°C° 0 mm 2 m/s 710 mmHg 79%
    19:00 +24°C° 0 mm 2 m/s 710 mmHg 87%
    20:00 +24°C° 0 mm 1 m/s 711 mmHg 88%
    21:00 +23°C° 0 mm 1 m/s 711 mmHg 88%
    22:00 +23°C° 0 mm 1 m/s 712 mmHg 89%
    23:00 +23°C° 0 mm 1 m/s 712 mmHg 88%

    28 Iunie, Vineri

    Timp Temperatura Precipitaţii Vânt Presiune Umiditate
    00:00 +23°C° 0 mm 1 m/s 712 mmHg 88%
    01:00 +23°C° 0 mm 1 m/s 711 mmHg 88%
    02:00 +23°C° 0 mm 1 m/s 711 mmHg 87%
    03:00 +23°C° 0 mm 1 m/s 711 mmHg 87%
    04:00 +22°C° 0 mm 1 m/s 711 mmHg 87%
    05:00 +23°C° 0 mm 1 m/s 711 mmHg 84%
    06:00 +24°C° 0 mm 1 m/s 712 mmHg 81%
    07:00 +25°C° 0 mm 1 m/s 712 mmHg 78%
    08:00 +27°C° 0.2 mm 1 m/s 713 mmHg 74%
    09:00 +28°C° 0.2 mm 2 m/s 713 mmHg 71%
    10:00 +29°C° 0.2 mm 3 m/s 713 mmHg 67%
    11:00 +29°C° 0.5 mm 3 m/s 713 mmHg 66%
    12:00 +30°C° 0.5 mm 3 m/s 712 mmHg 65%
    13:00 +30°C° 0.5 mm 3 m/s 712 mmHg 64%
    14:00 +30°C° 0.9 mm 2 m/s 711 mmHg 68%
    15:00 +29°C° 0.9 mm 2 m/s 711 mmHg 72%
    16:00 +28°C° 0.9 mm 2 m/s 710 mmHg 76%
    17:00 +27°C° 1.2 mm 2 m/s 711 mmHg 81%
    18:00 +26°C° 1.2 mm 2 m/s 711 mmHg 85%
    19:00 +25°C° 1.2 mm 2 m/s 711 mmHg 90%
    20:00 +24°C° 0.5 mm 2 m/s 712 mmHg 90%
    21:00 +24°C° 0.5 mm 1 m/s 712 mmHg 91%
    22:00 +24°C° 0.5 mm 1 m/s 713 mmHg 91%
    23:00 +24°C° 0.6 mm 1 m/s 712 mmHg 91%

    29 Iunie, Sâmbătă

    Timp Temperatura Precipitaţii Vânt Presiune Umiditate
    00:00 +24°C° 0.6 mm 1 m/s 712 mmHg 91%
    01:00 +24°C° 0.6 mm 1 m/s 711 mmHg 91%
    02:00 +24°C° 0.1 mm 1 m/s 711 mmHg 90%
    03:00 +23°C° 0.1 mm 1 m/s 711 mmHg 90%
    04:00 +21°C° 0.1 mm 0 m/s 711 mmHg 90%
    05:00 +22°C° 0 mm 0 m/s 712 mmHg 88%
    06:00 +23°C° 0 mm 0 m/s 712 mmHg 86%
    07:00 +23°C° 0 mm 0 m/s 712 mmHg 84%
    08:00 +27°C° 0.1 mm 1 m/s 713 mmHg 76%
    09:00 +29°C° 0.1 mm 1 m/s 713 mmHg 69%
    10:00 +30°C° 0.1 mm 1 m/s 714 mmHg 62%
    11:00 +30°C° 0.6 mm 1 m/s 713 mmHg 62%
    12:00 +31°C° 0.6 mm 2 m/s 713 mmHg 63%
    13:00 +31°C° 0.6 mm 2 m/s 712 mmHg 63%
    14:00 +30°C° 1.4 mm 2 m/s 712 mmHg 68%
    15:00 +29°C° 1.4 mm 2 m/s 711 mmHg 74%
    16:00 +28°C° 1.4 mm 2 m/s 710 mmHg 79%
    17:00 +27°C° 0.3 mm 2 m/s 711 mmHg 83%
    18:00 +26°C° 0.3 mm 2 m/s 711 mmHg 87%
    19:00 +25°C° 0.3 mm 2 m/s 711 mmHg 91%
    20:00 +25°C° 0 mm 1 m/s 712 mmHg 91%
    21:00 +24°C° 0 mm 1 m/s 712 mmHg 92%
    22:00 +24°C° 0 mm 1 m/s 713 mmHg 93%
    23:00 +24°C° 0 mm 1 m/s 712 mmHg 93%

    30 Iunie, Duminică

    Timp Temperatura Precipitaţii Vânt Presiune Umiditate
    00:00 +24°C° 0 mm 1 m/s 712 mmHg 93%
    01:00 +24°C° 0 mm 1 m/s 712 mmHg 93%
    02:00 +23°C° 0 mm 1 m/s 712 mmHg 92%
    03:00 +23°C° 0 mm 1 m/s 711 mmHg 92%
    04:00 +23°C° 0 mm 1 m/s 711 mmHg 92%
    05:00 +24°C° 0 mm 1 m/s 712 mmHg 89%
    06:00 +22°C° 0 mm 0 m/s 712 mmHg 87%
    07:00 +23°C° 0 mm 0 m/s 713 mmHg 84%
    08:00 +27°C° 0 mm 1 m/s 713 mmHg 78%
    09:00 +28°C° 0 mm 1 m/s 713 mmHg 72%
    10:00 +29°C° 0 mm 2 m/s 713 mmHg 66%
    11:00 +30°C° 0.3 mm 2 m/s 713 mmHg 65%
    12:00 +30°C° 0.3 mm 2 m/s 712 mmHg 64%
    13:00 +30°C° 0.3 mm 2 m/s 712 mmHg 63%
    14:00 +30°C° 0.6 mm 2 m/s 711 mmHg 68%
    15:00 +29°C° 0.6 mm 2 m/s 711 mmHg 72%
    16:00 +28°C° 0.6 mm 2 m/s 710 mmHg 77%
    17:00 +27°C° 0.3 mm 2 m/s 711 mmHg 81%
    18:00 +26°C° 0.3 mm 1 m/s 711 mmHg 85%
    19:00 +24°C° 0.3 mm 1 m/s 711 mmHg 89%
    20:00 +24°C° 0 mm 1 m/s 712 mmHg 89%
    21:00 +24°C° 0 mm 1 m/s 712 mmHg 89%
    22:00 +24°C° 0 mm 1 m/s 712 mmHg 90%
    23:00 +24°C° 0 mm 1 m/s 712 mmHg 90%
    Arată mai mult